Weather History for KOCW - February, 2013

Change the Weather History Date:

Thursday, February 21, 2013

  Actual Average (KEWN) Record (KEWN)
Temperature  
Mean Temperature 40 °F 48 °F  
Max Temperature 52 °F 59 °F 79 °F (2011)
Min Temperature 27 °F 37 °F 18 °F (1959)
Degree Days  
Heating Degree Days 26 17  
Month to date heating degree days 392  
Since 1 July heating degree days 2032  
Cooling Degree Days 0 0  
Month to date cooling degree days 0  
Year to date cooling degree days 1  
Moisture  
Dew Point 18 °F    
Average Humidity 47    
Maximum Humidity 80    
Minimum Humidity 15    
Precipitation  
Precipitation 0.00 in 0.14 in 1.60 in (1954)
Month to date precipitation 2.70  
Year to date precipitation 6.72  
Snow  
Snow 0.00 in - - ()
Month to date snowfall  
Since 1 July snowfall  
Snow Depth -    
Sea Level Pressure  
Sea Level Pressure 30.19 in    
Wind  
Wind Speed 3 mph (NNW)    
Max Wind Speed 10 mph    
Max Gust Speed -    
Visibility 10 miles    
Events      
T = Trace of Precipitation, MM = Missing Value Source: NWS Daily Summary

Daily Weather History Graph

Daily Weather History Graph

Search for Another Location

Airport or City:

Trip Planner

Search our weather history database for the weather conditions in past years. The results will help you decide how hot, cold, wet, or windy it might be!

Date:

Astronomy

Feb. 21, 2013 Rise Set
Actual Time 6:47 AM EST 5:56 PM EST
Civil Twilight 6:21 AM EST 6:22 PM EST
Nautical Twilight 5:52 AM EST 6:51 PM EST
Astronomical Twilight 5:22 AM EST 7:21 PM EST
Moon 2:14 PM EST (2/21) 3:45 AM EST (2/21)
Length of Visible Light 12h 00m
Length of Day
11h 08m
Waxing Gibbous, 83% of the Moon is Illuminated
Feb 21
Waxing Gibbous
Feb 25
Full
Mar 4
Last Quarter
Mar 11
New
Mar 19
First Quarter

Hourly Weather History & Observations

Time (EST) Temp. Windchill Dew Point Humidity Pressure Visibility Wind Dir Wind Speed Gust Speed Precip Events Conditions
12:15 AM 40.1 °F 38.0 °F 13.1 °F 33% 30.12 in 10.0 mi NNW 3.5 mph - N/A   Clear
12:35 AM 38.5 °F 34.1 °F 11.8 °F 34% 30.11 in 10.0 mi NNW 5.8 mph - N/A   Clear
12:55 AM 37.6 °F 35.1 °F 12.7 °F 36% 30.13 in 10.0 mi NW 3.5 mph - N/A   Clear
1:15 AM 38.1 °F 35.7 °F 10.8 °F 32% 30.12 in 10.0 mi NW 3.5 mph - N/A   Clear
1:35 AM 37.6 °F 35.1 °F 13.6 °F 38% 30.12 in 10.0 mi NNW 3.5 mph - N/A   Clear
1:55 AM 37.6 °F - 16.5 °F 42% 30.11 in 10.0 mi Calm Calm - N/A   Clear
2:15 AM 37.6 °F 35.1 °F 16.7 °F 43% 30.13 in 10.0 mi NW 3.5 mph - N/A   Clear
2:35 AM 37.6 °F 35.1 °F 14.5 °F 39% 30.13 in 10.0 mi NW 3.5 mph - N/A   Clear
2:55 AM 35.1 °F - 15.4 °F 45% 30.12 in 10.0 mi Calm Calm - N/A   Clear
3:15 AM 33.8 °F - 17.1 °F 50% 30.13 in 10.0 mi Calm Calm - N/A   Clear
3:35 AM 30.2 °F 24.3 °F 21.6 °F 70% 30.14 in 10.0 mi North 5.8 mph - N/A   Clear
3:55 AM 31.5 °F - 21.7 °F 67% 30.15 in 10.0 mi Calm Calm - N/A   Clear
4:15 AM 32.5 °F - 21.2 °F 63% 30.15 in 10.0 mi Calm Calm - N/A   Clear
4:35 AM 32.5 °F - 21.2 °F 63% 30.16 in 10.0 mi Calm Calm - N/A   Clear
4:55 AM 32.2 °F - 23.9 °F 72% 30.16 in 10.0 mi Calm Calm - N/A   Clear
5:15 AM 32.0 °F - 23.9 °F 72% 30.16 in 10.0 mi Calm Calm - N/A   Clear
5:35 AM 32.4 °F - 24.8 °F 74% 30.17 in 10.0 mi Calm Calm - N/A   Clear
5:55 AM 32.4 °F - 25.2 °F 75% 30.18 in 10.0 mi Calm Calm - N/A   Clear
6:15 AM 30.2 °F - 23.5 °F 76% 30.19 in 10.0 mi Calm Calm - N/A   Clear
6:35 AM 27.9 °F - 21.7 °F 78% 30.19 in 10.0 mi Calm Calm - N/A   Clear
6:55 AM 27.9 °F - 22.5 °F 80% 30.19 in 10.0 mi Calm Calm - N/A   Clear
7:15 AM 28.9 °F - 23.5 °F 80% 30.20 in 10.0 mi Calm Calm - N/A   Clear
7:35 AM 29.7 °F - 24.3 °F 80% 30.21 in 10.0 mi Calm Calm - N/A   Clear
7:55 AM 32.5 °F 29.3 °F 26.4 °F 78% 30.22 in 10.0 mi North 3.5 mph - N/A   Clear
8:15 AM 32.5 °F 28.1 °F 25.0 °F 74% 30.22 in 10.0 mi North 4.6 mph - N/A   Clear
8:35 AM 35.1 °F - 25.9 °F 69% 30.22 in 10.0 mi Calm Calm - N/A   Clear
9:15 AM 37.6 °F - 24.8 °F 60% 30.22 in 10.0 mi Calm Calm - N/A   Clear
9:35 AM 38.3 °F - 23.5 °F 55% 30.22 in 10.0 mi Calm Calm - N/A   Clear
9:55 AM 40.1 °F 36.9 °F 21.7 °F 48% 30.23 in 10.0 mi WNW 4.6 mph - N/A   Clear
10:15 AM 40.1 °F 36.1 °F 17.2 °F 40% 30.22 in 10.0 mi West 5.8 mph - N/A   Clear
10:35 AM 40.1 °F - 17.4 °F 40% 30.21 in 10.0 mi Calm Calm - N/A   Clear
10:55 AM 42.8 °F 38.6 °F 14.9 °F 32% 30.21 in 10.0 mi West 6.9 mph - N/A   Clear
11:15 AM 42.8 °F 38.0 °F 14.5 °F 32% 30.20 in 10.0 mi NNW 8.1 mph - N/A   Clear
11:35 AM 43.0 °F 39.5 °F 14.9 °F 32% 30.20 in 10.0 mi WNW 5.8 mph - N/A   Clear
11:55 AM 43.7 °F 39.1 °F 14.5 °F 31% 30.19 in 10.0 mi NW 8.1 mph - N/A   Clear
12:15 PM 44.4 °F 41.2 °F 14.0 °F 29% 30.19 in 10.0 mi NW 5.8 mph - N/A   Clear
12:35 PM 45.5 °F 41.3 °F 11.8 °F 26% 30.19 in 10.0 mi NW 8.1 mph - N/A   Clear
1:15 PM 46.4 °F 42.4 °F 9.7 °F 23% 30.16 in 10.0 mi West 8.1 mph - N/A   Clear
1:35 PM 47.7 °F - 9.5 °F 21% 30.15 in 10.0 mi NW 8.1 mph - N/A   Clear
1:55 PM 47.7 °F - 7.2 °F 19% 30.15 in 10.0 mi West 4.6 mph - N/A   Clear
2:15 PM 48.7 °F - 9.9 °F 21% 30.14 in 10.0 mi North 10.4 mph - N/A   Clear
2:35 PM 50.2 °F - 9.9 °F 20% 30.14 in 10.0 mi NNW 6.9 mph - N/A   Clear
2:55 PM 50.2 °F - 8.2 °F 18% 30.13 in - WNW 3.5 mph - N/A   Clear
3:15 PM 51.8 °F - 7.0 °F 16% 30.13 in 10.0 mi NNW 5.8 mph - N/A   Clear
3:35 PM 52.7 °F - 7.5 °F 16% 30.13 in 10.0 mi NNW 6.9 mph - N/A   Clear
3:55 PM 52.7 °F - 6.6 °F 16% 30.12 in 10.0 mi WNW 3.5 mph - N/A   Clear
4:15 PM 52.7 °F - 6.4 °F 15% 30.13 in 10.0 mi NNW 8.1 mph - N/A   Clear
4:35 PM 52.7 °F - 7.2 °F 16% 30.14 in 10.0 mi West 4.6 mph - N/A   Clear
4:55 PM 50.2 °F - 5.2 °F 16% 30.14 in 10.0 mi WNW 3.5 mph - N/A   Clear
5:35 PM 47.8 °F - 8.4 °F 20% 30.16 in 10.0 mi NNW 5.8 mph - N/A   Clear
5:55 PM 47.1 °F - 10.6 °F 23% 30.17 in 10.0 mi North 4.6 mph - N/A   Clear
6:15 PM 45.0 °F - 17.4 °F 33% 30.19 in 10.0 mi Calm Calm - N/A   Clear
6:35 PM 43.9 °F - 18.3 °F 36% 30.19 in 10.0 mi Calm Calm - N/A   Clear
6:55 PM 42.8 °F - 21.9 °F 44% 30.20 in 10.0 mi Calm Calm - N/A   Clear
7:15 PM 41.2 °F - 25.5 °F 54% 30.22 in 10.0 mi Calm Calm - N/A   Clear
7:35 PM 39.0 °F 35.7 °F 26.8 °F 62% 30.21 in 10.0 mi ENE 4.6 mph - N/A   Clear
7:55 PM 40.3 °F 37.1 °F 23.2 °F 51% 30.21 in 10.0 mi NE 4.6 mph - N/A   Clear
8:15 PM 41.0 °F - 21.2 °F 45% 30.24 in 10.0 mi Calm Calm - N/A   Clear
8:35 PM 40.1 °F - 23.7 °F 52% 30.25 in 10.0 mi Calm Calm - N/A   Clear
8:55 PM 37.6 °F - 26.1 °F 63% 30.26 in 10.0 mi Calm Calm - N/A   Clear
9:15 PM 37.6 °F 34.0 °F 26.8 °F 65% 30.26 in 10.0 mi NE 4.6 mph - N/A   Clear
9:35 PM 40.1 °F 36.9 °F 23.7 °F 52% 30.27 in 10.0 mi ENE 4.6 mph - N/A   Clear
9:55 PM 40.1 °F 36.9 °F 23.4 °F 51% 30.27 in 10.0 mi NE 4.6 mph - N/A   Clear
10:15 PM 40.1 °F 34.7 °F 24.3 °F 53% 30.26 in 10.0 mi NE 8.1 mph - N/A   Clear
10:35 PM 40.1 °F 36.1 °F 25.3 °F 56% 30.27 in 10.0 mi ENE 5.8 mph - N/A   Clear
10:55 PM 40.1 °F 38.0 °F 26.6 °F 59% 30.27 in 10.0 mi ENE 3.5 mph - N/A   Clear
11:15 PM 40.1 °F 36.9 °F 27.7 °F 61% 30.28 in 10.0 mi East 4.6 mph - N/A   Clear
11:35 PM 40.1 °F 36.1 °F 28.6 °F 63% 30.27 in 10.0 mi ENE 5.8 mph - N/A   Clear
11:55 PM 40.1 °F 38.0 °F 28.0 °F 62% 30.27 in 10.0 mi ENE 3.5 mph - N/A   Clear